Location: Newark
(44.3449°N, 4.8694°E)
Time: 13:39:22
(UTC+00:00)

Envisat - Pass Details

Date: 28 January 2020
Orbit: 764 x 766 km, 98.1° (Epoch: 24 February)

Event Time Altitude Azimuth Distance (km) Brightness Sun altitude
Rises 17:15:55 0° 161° (SSE) 3,219 6.2 -6.2°
Reaches altitude 10° 17:18:13 10° 159° (SSE) 2,297 5.5 -6.6°
Maximum altitude 17:23:16 77° 75° (ENE) 790 3.0 -7.4°
Drops below altitude 10° 17:28:22 10° 350° (N) 2,313 5.4 -8.3°
Sets 17:30:41 0° 349° (NNW) 3,244 6.2 -8.7°
